| time (UTC) | temp F | wind direction | speed MPH | gust MPH | rain 1hr in | rain 24hr in | rain mn in | humidity % | barometer mb |
| 20260502183554 | 56 | 323 | 1.0 | 4.0 | 0.00 | 0.00 | 0.00 | 78 | 1014.9 |
| 20260502183107 | 57 | 0 | 1.0 | 4.0 | 0.00 | 0.00 | 0.00 | 78 | 1014.8 |
| 20260502182553 | 56 | 0 | 0.0 | 5.0 | 0.00 | 0.00 | 0.00 | 81 | 1014.8 |
| 20260502182056 | 55 | 303 | 1.0 | 5.0 | 0.00 | 0.00 | 0.00 | 81 | 1014.9 |
| 20260502181611 | 56 | 5 | 1.0 | 5.0 | 0.00 | 0.00 | 0.00 | 80 | 1015.1 |
| 20260502181053 | 55 | 24 | 1.0 | 6.0 | 0.00 | 0.00 | 0.00 | 81 | 1015.0 |
| 20260502180554 | 54 | 5 | 2.0 | 7.0 | 0.00 | 0.00 | 0.00 | 81 | 1015.1 |
| 20260502180109 | 55 | 0 | 1.0 | 7.0 | 0.00 | 0.00 | 0.00 | 81 | 1015.3 |
| 20260502164057 | 53 | 20 | 2.0 | 5.0 | 0.00 | 0.00 | 0.00 | 84 | 1015.4 |
| 20260502163554 | 53 | 0 | 2.0 | 5.0 | 0.00 | 0.00 | 0.00 | 84 | 1015.4 |
| 20260502163059 | 53 | 34 | 1.0 | 4.0 | 0.00 | 0.00 | 0.00 | 84 | 1015.4 |
| 20260502162556 | 53 | 35 | 2.0 | 4.0 | 0.00 | 0.00 | 0.00 | 84 | 1015.4 |
| 20260502162059 | 53 | 0 | 0.0 | 7.0 | 0.00 | 0.00 | 0.00 | 86 | 1015.3 |
| 20260502161556 | 52 | 0 | 2.0 | 7.0 | 0.00 | 0.00 | 0.00 | 85 | 1015.4 |
| 20260502161054 | 52 | 66 | 3.0 | 5.0 | 0.00 | 0.00 | 0.00 | 85 | 1015.5 |
| 20260502160557 | 52 | 18 | 0.0 | 4.0 | 0.00 | 0.00 | 0.00 | 86 | 1015.6 |
| 20260502152058 | 52 | 37 | 1.0 | 8.0 | 0.00 | 0.00 | 0.00 | 86 | 1015.7 |
| 20260502151612 | 52 | 45 | 3.0 | 6.0 | 0.00 | 0.00 | 0.00 | 85 | 1015.5 |
| 20260502151054 | 52 | 47 | 1.0 | 5.0 | 0.00 | 0.00 | 0.00 | 85 | 1015.6 |
| 20260502150554 | 52 | 360 | 1.0 | 5.0 | 0.00 | 0.00 | 0.00 | 85 | 1015.7 |
| 20260502130557 | 51 | 0 | 1.0 | 5.0 | 0.00 | 0.00 | 0.00 | 86 | 1015.5 |
| 20260502123553 | 50 | 0 | 0.0 | 5.0 | 0.00 | 0.00 | 0.00 | 87 | 1015.4 |
| 20260502123053 | 50 | 0 | 1.0 | 5.0 | 0.00 | 0.00 | 0.00 | 87 | 1015.4 |
| 20260502122554 | 50 | 5 | 1.0 | 4.0 | 0.00 | 0.00 | 0.00 | 87 | 1015.5 |
| 20260502122054 | 50 | 0 | 1.0 | 4.0 | 0.00 | 0.00 | 0.00 | 87 | 1015.6 |
| 20260502121600 | 50 | 34 | 0.0 | 8.0 | 0.00 | 0.00 | 0.00 | 88 | 1015.5 |
| 20260502121056 | 50 | 0 | 1.0 | 8.0 | 0.00 | 0.00 | 0.00 | 88 | 1015.5 |
| 20260502120556 | 50 | 355 | 1.0 | 3.0 | 0.00 | 0.00 | 0.00 | 88 | 1015.4 |
| 20260502115554 | 50 | 263 | 0.0 | 2.0 | 0.00 | 0.00 | 0.00 | 89 | 1015.5 |
| 20260502115054 | 50 | 0 | 0.0 | 2.0 | 0.00 | 0.00 | 0.00 | 89 | 1015.4 |
| 20260502114558 | 50 | 0 | 0.0 | 2.0 | 0.00 | 0.00 | 0.00 | 88 | 1015.5 |
| 20260502114055 | 50 | 0 | 0.0 | 2.0 | 0.00 | 0.00 | 0.00 | 88 | 1015.6 |
| 20260502113554 | 50 | 0 | 0.0 | 4.0 | 0.00 | 0.00 | 0.00 | 88 | 1015.4 |
| 20260502113103 | 50 | 297 | 0.0 | 4.0 | 0.00 | 0.00 | 0.00 | 88 | 1015.6 |
| 20260502112554 | 50 | 0 | 0.0 | 3.0 | 0.00 | 0.00 | 0.00 | 87 | 1015.5 |
| 20260502112054 | 50 | 0 | 1.0 | 3.0 | 0.00 | 0.00 | 0.00 | 87 | 1015.6 |
| 20260502111602 | 50 | 0 | 0.0 | 6.0 | 0.00 | 0.00 | 0.00 | 87 | 1015.6 |
| 20260502111054 | 51 | 296 | 2.0 | 7.0 | 0.00 | 0.00 | 0.00 | 87 | 1015.7 |
| 20260502110554 | 51 | 352 | 2.0 | 7.0 | 0.00 | 0.00 | 0.00 | 87 | 1015.4 |
| 20260502110059 | 51 | 36 | 2.0 | 7.0 | 0.00 | 0.00 | 0.00 | 87 | 1015.2 |
| 20260502105555 | 51 | 347 | 2.0 | 7.0 | 0.00 | 0.00 | 0.00 | 87 | 1015.3 |
| 20260502105055 | 51 | 5 | 2.0 | 6.0 | 0.00 | 0.00 | 0.00 | 87 | 1015.4 |
| 20260502104611 | 51 | 13 | 2.0 | 6.0 | 0.00 | 0.00 | 0.00 | 87 | 1015.4 |
| 20260502104054 | 51 | 18 | 2.0 | 5.0 | 0.00 | 0.00 | 0.00 | 87 | 1015.5 |
| 20260502103554 | 51 | 5 | 2.0 | 8.0 | 0.00 | 0.00 | 0.00 | 87 | 1015.5 |
| 20260502103058 | 51 | 29 | 3.0 | 8.0 | 0.00 | 0.00 | 0.00 | 87 | 1015.7 |
| 20260502102557 | 51 | 41 | 1.0 | 4.0 | 0.00 | 0.00 | 0.00 | 87 | 1015.8 |
| 20260502102054 | 51 | 51 | 1.0 | 5.0 | 0.00 | 0.00 | 0.00 | 87 | 1015.7 |
| 20260502101611 | 51 | 38 | 2.0 | 5.0 | 0.00 | 0.00 | 0.00 | 86 | 1015.6 |
| 20260502101054 | 51 | 48 | 1.0 | 5.0 | 0.00 | 0.00 | 0.00 | 86 | 1015.6 |
| 20260502100557 | 51 | 17 | 2.0 | 8.0 | 0.00 | 0.00 | 0.00 | 86 | 1015.3 |
| 20260502091055 | 52 | 0 | 0.0 | 3.0 | 0.00 | 0.00 | 0.00 | 85 | 1016.5 |
| 20260502090554 | 52 | 35 | 0.0 | 3.0 | 0.00 | 0.00 | 0.00 | 85 | 1016.7 |
| 20260502071054 | 55 | 352 | 2.0 | 7.0 | 0.00 | 0.00 | 0.00 | 76 | 1016.4 |
| 20260502070554 | 55 | 14 | 1.0 | 7.0 | 0.00 | 0.00 | 0.00 | 76 | 1016.3 |
| 20260502070114 | 55 | 28 | 3.0 | 7.0 | 0.00 | 0.00 | 0.00 | 76 | 1016.5 |
| 20260502065556 | 55 | 5 | 2.0 | 5.0 | 0.00 | 0.00 | 0.00 | 76 | 1016.2 |
| 20260502065055 | 55 | 15 | 1.0 | 7.0 | 0.00 | 0.00 | 0.00 | 76 | 1016.4 |
| 20260502064558 | 55 | 17 | 1.0 | 8.0 | 0.00 | 0.00 | 0.00 | 75 | 1016.4 |
| 20260502064055 | 56 | 14 | 3.0 | 8.0 | 0.00 | 0.00 | 0.00 | 75 | 1016.4 |
| 20260502063554 | 56 | 5 | 2.0 | 7.0 | 0.00 | 0.00 | 0.00 | 75 | 1016.4 |
| 20260502063113 | 56 | 360 | 2.0 | 5.0 | 0.00 | 0.00 | 0.00 | 75 | 1016.4 |
| 20260502062558 | 56 | 338 | 2.0 | 5.0 | 0.00 | 0.00 | 0.00 | 76 | 1016.3 |
| 20260502062054 | 56 | 5 | 1.0 | 5.0 | 0.00 | 0.00 | 0.00 | 76 | 1016.3 |
| 20260502061554 | 56 | 360 | 2.0 | 8.0 | 0.00 | 0.00 | 0.00 | 75 | 1016.3 |
| 20260502061054 | 56 | 42 | 3.0 | 8.0 | 0.00 | 0.00 | 0.00 | 75 | 1016.3 |
| 20260502060554 | 57 | 14 | 2.0 | 6.0 | 0.00 | 0.00 | 0.00 | 75 | 1016.3 |
| 20260502060057 | 57 | 27 | 1.0 | 3.0 | 0.00 | 0.00 | 0.00 | 75 | 1016.2 |
| 20260502055554 | 57 | 20 | 0.0 | 3.0 | 0.00 | 0.00 | 0.00 | 75 | 1016.1 |
| 20260502055057 | 57 | 5 | 1.0 | 5.0 | 0.00 | 0.00 | 0.00 | 74 | 1016.1 |
| 20260502054606 | 57 | 9 | 1.0 | 6.0 | 0.00 | 0.00 | 0.00 | 74 | 1016.0 |
| 20260502054057 | 58 | 9 | 2.0 | 8.0 | 0.00 | 0.00 | 0.00 | 74 | 1016.1 |
| 20260502053554 | 58 | 0 | 3.0 | 8.0 | 0.00 | 0.00 | 0.00 | 74 | 1016.1 |
| 20260502053055 | 58 | 5 | 2.0 | 5.0 | 0.00 | 0.00 | 0.00 | 74 | 1016.0 |
| 20260502052554 | 58 | 18 | 2.0 | 5.0 | 0.00 | 0.00 | 0.00 | 74 | 1016.0 |
| 20260502052054 | 59 | 5 | 2.0 | 5.0 | 0.00 | 0.00 | 0.00 | 73 | 1016.0 |
| 20260502051556 | 59 | 19 | 1.0 | 7.0 | 0.00 | 0.00 | 0.00 | 73 | 1015.9 |
| 20260502051055 | 59 | 5 | 1.0 | 7.0 | 0.00 | 0.00 | 0.00 | 73 | 1016.0 |
| 20260502050554 | 60 | 13 | 1.0 | 5.0 | 0.00 | 0.00 | 0.00 | 72 | 1015.8 |
| 20260502050054 | 60 | 11 | 0.0 | 5.0 | 0.00 | 0.00 | 0.00 | 72 | 1015.7 |
| 20260502045554 | 60 | 14 | 1.0 | 6.0 | 0.00 | 0.00 | 0.00 | 71 | 1015.8 |
| 20260502045056 | 61 | 323 | 1.0 | 7.0 | 0.00 | 0.00 | 0.00 | 71 | 1015.6 |
| 20260502044555 | 61 | 13 | 3.0 | 7.0 | 0.00 | 0.00 | 0.00 | 70 | 1015.5 |
| 20260502044053 | 61 | 309 | 1.0 | 7.0 | 0.00 | 0.00 | 0.00 | 69 | 1015.6 |
| 20260502043553 | 62 | 338 | 1.0 | 8.0 | 0.00 | 0.00 | 0.00 | 69 | 1015.5 |
| 20260502043111 | 62 | 345 | 0.0 | 8.0 | 0.00 | 0.00 | 0.00 | 69 | 1015.5 |
| 20260502042554 | 62 | 344 | 1.0 | 8.0 | 0.00 | 0.00 | 0.00 | 69 | 1015.5 |
| 20260502042054 | 62 | 298 | 1.0 | 9.0 | 0.00 | 0.00 | 0.00 | 68 | 1015.4 |
| 20260502041619 | 63 | 344 | 1.0 | 9.0 | 0.00 | 0.00 | 0.00 | 68 | 1015.3 |
| 20260502041057 | 63 | 5 | 1.0 | 10.0 | 0.00 | 0.00 | 0.00 | 68 | 1015.2 |
| 20260502040555 | 63 | 347 | 1.0 | 10.0 | 0.00 | 0.00 | 0.00 | 67 | 1015.1 |
| 20260502040100 | 63 | 338 | 1.0 | 9.0 | 0.00 | 0.00 | 0.00 | 67 | 1015.0 |
| 20260502035554 | 64 | 346 | 1.0 | 9.0 | 0.00 | 0.00 | 0.00 | 67 | 1014.9 |
| 20260502035054 | 64 | 360 | 1.0 | 9.0 | 0.00 | 0.00 | 0.00 | 66 | 1014.8 |
| 20260502034553 | 64 | 82 | 1.0 | 4.0 | 0.00 | 0.00 | 0.00 | 67 | 1014.6 |
| 20260502034054 | 65 | 350 | 1.0 | 4.0 | 0.00 | 0.00 | 0.00 | 67 | 1014.6 |
| 20260502033553 | 65 | 29 | 0.0 | 4.0 | 0.00 | 0.00 | 0.00 | 66 | 1014.6 |
| 20260502033054 | 65 | 341 | 1.0 | 4.0 | 0.00 | 0.00 | 0.00 | 65 | 1014.5 |
| 20260502032554 | 66 | 23 | 1.0 | 5.0 | 0.00 | 0.00 | 0.00 | 65 | 1014.4 |
| 20260502032055 | 66 | 0 | 1.0 | 5.0 | 0.00 | 0.00 | 0.00 | 64 | 1014.3 |
| 20260502031555 | 66 | 323 | 1.0 | 4.0 | 0.00 | 0.00 | 0.00 | 63 | 1014.4 |
| 20260502031055 | 67 | 294 | 0.0 | 4.0 | 0.00 | 0.00 | 0.00 | 62 | 1014.3 |
| 20260502030554 | 67 | 0 | 1.0 | 4.0 | 0.00 | 0.00 | 0.00 | 62 | 1014.2 |
| 20260502030116 | 67 | 321 | 0.0 | 9.0 | 0.00 | 0.00 | 0.00 | 61 | 1014.2 |
| 20260502025554 | 68 | 0 | 1.0 | 9.0 | 0.00 | 0.00 | 0.00 | 60 | 1014.2 |
| 20260502025053 | 68 | 313 | 0.0 | 6.0 | 0.00 | 0.00 | 0.00 | 60 | 1014.1 |
| 20260502024603 | 68 | 315 | 1.0 | 8.0 | 0.00 | 0.00 | 0.00 | 60 | 1014.1 |
| 20260502024054 | 69 | 309 | 1.0 | 8.0 | 0.00 | 0.00 | 0.00 | 59 | 1014.1 |
| 20260502023555 | 69 | 309 | 2.0 | 8.0 | 0.00 | 0.00 | 0.00 | 60 | 1014.1 |
| 20260502023132 | 69 | 0 | 0.0 | 8.0 | 0.00 | 0.00 | 0.00 | 60 | 1014.0 |
| 20260502022557 | 69 | 0 | 2.0 | 8.0 | 0.00 | 0.00 | 0.00 | 60 | 1014.0 |
| 20260502022054 | 70 | 332 | 3.0 | 8.0 | 0.00 | 0.00 | 0.00 | 59 | 1013.9 |
| 20260502021555 | 70 | 305 | 0.0 | 5.0 | 0.00 | 0.00 | 0.00 | 59 | 1013.8 |
| 20260502021055 | 71 | 306 | 1.0 | 5.0 | 0.00 | 0.00 | 0.00 | 60 | 1013.8 |
| 20260502020554 | 71 | 338 | 1.0 | 5.0 | 0.00 | 0.00 | 0.00 | 59 | 1013.8 |
| 20260502015557 | 71 | 0 | 1.0 | 7.0 | 0.00 | 0.00 | 0.00 | 58 | 1013.7 |
| 20260502015053 | 71 | 259 | 2.0 | 6.0 | 0.00 | 0.00 | 0.00 | 57 | 1013.7 |
| 20260502014605 | 72 | 198 | 0.0 | 6.0 | 0.00 | 0.00 | 0.00 | 58 | 1013.5 |
| 20260502014054 | 72 | 282 | 2.0 | 6.0 | 0.00 | 0.00 | 0.00 | 57 | 1013.7 |
| 20260502013554 | 72 | 273 | 1.0 | 5.0 | 0.00 | 0.00 | 0.00 | 57 | 1013.6 |
| 20260502013100 | 72 | 240 | 2.0 | 5.0 | 0.00 | 0.00 | 0.00 | 56 | 1013.5 |
| 20260502012554 | 72 | 243 | 2.0 | 7.0 | 0.00 | 0.00 | 0.00 | 56 | 1013.6 |
| 20260502012053 | 72 | 235 | 2.0 | 7.0 | 0.00 | 0.00 | 0.00 | 55 | 1013.6 |
| 20260502011606 | 73 | 245 | 2.0 | 6.0 | 0.00 | 0.00 | 0.00 | 54 | 1013.6 |
| 20260502011053 | 73 | 262 | 1.0 | 3.0 | 0.00 | 0.00 | 0.00 | 52 | 1013.5 |
| 20260502010554 | 73 | 277 | 0.0 | 5.0 | 0.00 | 0.00 | 0.00 | 53 | 1013.6 |
| 20260502010056 | 73 | 235 | 2.0 | 5.0 | 0.00 | 0.00 | 0.00 | 52 | 1013.5 |
| 20260502005554 | 73 | 242 | 2.0 | 8.0 | 0.00 | 0.00 | 0.00 | 52 | 1013.6 |
| 20260502005055 | 73 | 196 | 4.0 | 8.0 | 0.00 | 0.00 | 0.00 | 51 | 1013.7 |
| 20260502004555 | 73 | 292 | 2.0 | 7.0 | 0.00 | 0.00 | 0.00 | 52 | 1013.6 |
| 20260502004053 | 73 | 290 | 1.0 | 4.0 | 0.00 | 0.00 | 0.00 | 53 | 1013.5 |
| 20260502003555 | 73 | 226 | 1.0 | 8.0 | 0.00 | 0.00 | 0.00 | 52 | 1013.5 |
| 20260502003053 | 74 | 290 | 2.0 | 8.0 | 0.00 | 0.00 | 0.00 | 51 | 1013.7 |
| 20260502002557 | 74 | 273 | 2.0 | 8.0 | 0.00 | 0.00 | 0.00 | 51 | 1013.5 |
| 20260502002054 | 74 | 157 | 2.0 | 9.0 | 0.00 | 0.00 | 0.00 | 51 | 1013.5 |
| 20260502001601 | 74 | 260 | 1.0 | 9.0 | 0.00 | 0.00 | 0.00 | 52 | 1013.6 |
| 20260502001055 | 73 | 235 | 1.0 | 9.0 | 0.00 | 0.00 | 0.00 | 54 | 1013.5 |
| 20260502000553 | 73 | 173 | 2.0 | 9.0 | 0.00 | 0.00 | 0.00 | 53 | 1013.6 |
| 20260502000106 | 73 | 254 | 2.0 | 8.0 | 0.00 | 0.00 | 0.00 | 54 | 1013.5 |
| 20260501235554 | 73 | 178 | 2.0 | 6.0 | 0.00 | 0.00 | 0.00 | 54 | 1013.5 |
| 20260501235054 | 72 | 254 | 1.0 | 6.0 | 0.00 | 0.00 | 0.00 | 53 | 1013.6 |
| 20260501234558 | 72 | 121 | 2.0 | 5.0 | 0.00 | 0.00 | 0.00 | 54 | 1013.6 |
| 20260501234055 | 72 | 246 | 1.0 | 4.0 | 0.00 | 0.00 | 0.00 | 54 | 1013.6 |
| 20260501233554 | 71 | 79 | 3.0 | 5.0 | 0.00 | 0.00 | 0.00 | 55 | 1013.7 |
| 20260501233112 | 72 | 85 | 2.0 | 6.0 | 0.00 | 0.00 | 0.00 | 56 | 1013.7 |
| 20260501232552 | 71 | 53 | 1.0 | 6.0 | 0.00 | 0.00 | 0.00 | 54 | 1013.7 |
| 20260501232053 | 71 | 110 | 2.0 | 6.0 | 0.00 | 0.00 | 0.00 | 55 | 1013.7 |
| 20260501231620 | 72 | 242 | 1.0 | 6.0 | 0.00 | 0.00 | 0.00 | 54 | 1013.8 |
| 20260501231053 | 71 | 262 | 2.0 | 6.0 | 0.00 | 0.00 | 0.00 | 53 | 1013.8 |
| 20260501230553 | 72 | 246 | 3.0 | 6.0 | 0.00 | 0.00 | 0.00 | 53 | 1014.1 |
| 20260501230117 | 72 | 239 | 0.0 | 4.0 | 0.00 | 0.00 | 0.00 | 54 | 1014.1 |
| 20260501225554 | 72 | 196 | 1.0 | 4.0 | 0.00 | 0.00 | 0.00 | 54 | 1014.2 |
| 20260501225054 | 72 | 0 | 0.0 | 7.0 | 0.00 | 0.00 | 0.00 | 53 | 1014.2 |
| 20260501224602 | 71 | 268 | 2.0 | 7.0 | 0.00 | 0.00 | 0.00 | 53 | 1014.2 |
| 20260501224054 | 72 | 263 | 1.0 | 8.0 | 0.00 | 0.00 | 0.00 | 55 | 1014.3 |
| 20260501223554 | 72 | 81 | 1.0 | 8.0 | 0.00 | 0.00 | 0.00 | 54 | 1014.3 |
| 20260501223058 | 71 | 271 | 2.0 | 8.0 | 0.00 | 0.00 | 0.00 | 55 | 1014.4 |
| 20260501222553 | 71 | 239 | 3.0 | 7.0 | 0.00 | 0.00 | 0.00 | 57 | 1014.5 |
| 20260501222054 | 70 | 155 | 2.0 | 6.0 | 0.00 | 0.00 | 0.00 | 56 | 1014.5 |
| 20260501221609 | 70 | 129 | 1.0 | 5.0 | 0.00 | 0.00 | 0.00 | 57 | 1014.6 |
| 20260501221055 | 70 | 218 | 1.0 | 5.0 | 0.00 | 0.00 | 0.00 | 55 | 1014.6 |
| 20260501220554 | 71 | 207 | 2.0 | 6.0 | 0.00 | 0.00 | 0.00 | 55 | 1014.7 |
| 20260501220104 | 70 | 128 | 2.0 | 6.0 | 0.00 | 0.00 | 0.00 | 57 | 1014.9 |
| 20260501215554 | 70 | 164 | 2.0 | 4.0 | 0.00 | 0.00 | 0.00 | 58 | 1014.8 |
| 20260501215053 | 70 | 351 | 1.0 | 4.0 | 0.00 | 0.00 | 0.00 | 57 | 1014.7 |
| 20260501214556 | 70 | 279 | 1.0 | 3.0 | 0.00 | 0.00 | 0.00 | 56 | 1014.8 |
| 20260501214053 | 69 | 0 | 1.0 | 4.0 | 0.00 | 0.00 | 0.00 | 56 | 1014.9 |
| 20260501213553 | 68 | 155 | 2.0 | 6.0 | 0.00 | 0.00 | 0.00 | 57 | 1015.0 |
| 20260501213101 | 69 | 155 | 2.0 | 6.0 | 0.00 | 0.00 | 0.00 | 58 | 1015.1 |
| 20260501212553 | 69 | 286 | 2.0 | 8.0 | 0.00 | 0.00 | 0.00 | 56 | 1015.2 |
| 20260501212053 | 69 | 109 | 2.0 | 8.0 | 0.00 | 0.00 | 0.00 | 56 | 1015.2 |
| 20260501211555 | 69 | 274 | 1.0 | 5.0 | 0.00 | 0.00 | 0.00 | 57 | 1015.3 |
| 20260501211054 | 70 | 195 | 1.0 | 6.0 | 0.00 | 0.00 | 0.00 | 57 | 1015.3 |
| 20260501210553 | 69 | 352 | 1.0 | 7.0 | 0.00 | 0.00 | 0.00 | 57 | 1015.3 |
| 20260501210055 | 69 | 275 | 3.0 | 7.0 | 0.00 | 0.00 | 0.00 | 57 | 1015.4 |
| 20260501205557 | 69 | 276 | 2.0 | 6.0 | 0.00 | 0.00 | 0.00 | 58 | 1015.4 |
| 20260501205054 | 69 | 130 | 2.0 | 7.0 | 0.00 | 0.00 | 0.00 | 58 | 1015.4 |
| 20260501204557 | 69 | 57 | 1.0 | 7.0 | 0.00 | 0.00 | 0.00 | 60 | 1015.5 |
| 20260501204055 | 69 | 255 | 3.0 | 6.0 | 0.00 | 0.00 | 0.00 | 59 | 1015.5 |
| 20260501203554 | 70 | 132 | 1.0 | 7.0 | 0.00 | 0.00 | 0.00 | 60 | 1015.5 |
| 20260501203053 | 68 | 238 | 3.0 | 8.0 | 0.00 | 0.00 | 0.00 | 62 | 1015.6 |
| 20260501202553 | 68 | 172 | 3.0 | 8.0 | 0.00 | 0.00 | 0.00 | 61 | 1015.7 |
| 20260501202057 | 68 | 157 | 2.0 | 7.0 | 0.00 | 0.00 | 0.00 | 62 | 1015.5 |
| 20260501201559 | 68 | 294 | 2.0 | 7.0 | 0.00 | 0.00 | 0.00 | 61 | 1015.7 |
| 20260501201054 | 67 | 342 | 2.0 | 8.0 | 0.00 | 0.00 | 0.00 | 61 | 1015.7 |
| 20260501200553 | 68 | 269 | 2.0 | 8.0 | 0.00 | 0.00 | 0.00 | 61 | 1015.7 |
| 20260501200055 | 68 | 291 | 2.0 | 7.0 | 0.00 | 0.00 | 0.00 | 60 | 1015.7 |
| 20260501195554 | 68 | 260 | 2.0 | 6.0 | 0.00 | 0.00 | 0.00 | 60 | 1015.7 |
| 20260501195054 | 67 | 269 | 2.0 | 6.0 | 0.00 | 0.00 | 0.00 | 63 | 1015.6 |
| 20260501194554 | 66 | 281 | 2.0 | 7.0 | 0.00 | 0.00 | 0.00 | 65 | 1015.7 |
| 20260501194054 | 67 | 192 | 1.0 | 7.0 | 0.00 | 0.00 | 0.00 | 65 | 1015.7 |
| 20260501193555 | 66 | 138 | 3.0 | 7.0 | 0.00 | 0.00 | 0.00 | 64 | 1015.6 |
| 20260501193057 | 67 | 203 | 1.0 | 7.0 | 0.00 | 0.00 | 0.00 | 63 | 1015.7 |
| 20260501192557 | 66 | 54 | 3.0 | 7.0 | 0.00 | 0.00 | 0.00 | 64 | 1015.7 |
| 20260501192053 | 65 | 45 | 2.0 | 7.0 | 0.00 | 0.00 | 0.00 | 66 | 1015.7 |
| 20260501191557 | 65 | 247 | 2.0 | 6.0 | 0.00 | 0.00 | 0.00 | 67 | 1015.8 |
| 20260501191053 | 64 | 179 | 2.0 | 6.0 | 0.00 | 0.00 | 0.00 | 66 | 1015.9 |
| 20260501190553 | 64 | 102 | 2.0 | 6.0 | 0.00 | 0.00 | 0.00 | 66 | 1015.9 |
| 20260501190106 | 64 | 184 | 1.0 | 4.0 | 0.00 | 0.00 | 0.00 | 66 | 1016.0 |
| 20260501185555 | 64 | 192 | 1.0 | 8.0 | 0.00 | 0.00 | 0.00 | 67 | 1016.1 |
| 20260501185055 | 63 | 212 | 2.0 | 8.0 | 0.00 | 0.00 | 0.00 | 67 | 1016.1 |
| 20260501184553 | 63 | 323 | 1.0 | 7.0 | 0.00 | 0.00 | 0.00 | 68 | 1016.2 |
| 20260501184055 | 64 | 300 | 2.0 | 7.0 | 0.00 | 0.00 | 0.00 | 67 | 1016.3 |